Location: �terpigny
(49.8910°N, 2.9249°E)
Time: 01:39:55
(UTC+00:00)

RS-44 - Visible Passes

Search period start: 30 June 2022 00:00
Search period end: 10 July 2022 00:00
Orbit: 1175 x 1509 km, 82.5° (Epoch: 29 June)

Date Brightness Start Highest point End Pass type
(mag) Time Alt. Az. Time Alt. Az. Time Alt. Az.
30 Jun ? 21:04:31 10° SSW 21:12:37 59° WNW 21:21:18 10° N visible
30 Jun ? 23:03:13 10° W 23:08:23 17° NW 23:13:42 10° N visible
01 Jul ? 21:29:00 10° SW 21:36:47 42° WNW 21:45:03 10° N visible
01 Jul ? 23:30:12 10° WNW 23:33:19 12° NW 23:36:28 10° NNW visible
02 Jul ? 21:53:57 10° WSW 22:01:08 30° WNW 22:08:42 10° N visible
03 Jul ? 22:19:27 10° W 22:25:42 22° NW 22:32:12 10° N visible
04 Jul ? 20:46:22 10° SSW 20:54:31 55° WNW 21:03:12 10° N visible
04 Jul ? 22:45:37 10° W 22:50:29 16° NW 22:55:27 10° N visible
05 Jul ? 21:10:58 10° SW 21:18:44 39° WNW 21:26:56 10° N visible
05 Jul ? 23:13:03 10° NW 23:15:28 11° NW 23:17:55 10° NNW visible
06 Jul ? 21:36:04 10° WSW 21:43:09 28° WNW 21:50:32 10° N visible
07 Jul ? 22:01:44 10° W 22:07:46 20° NW 22:14:00 10° N visible
08 Jul ? 20:28:15 10° SW 20:36:27 50° WNW 20:45:05 10° N visible
08 Jul ? 22:28:08 10° WNW 22:32:36 15° NW 22:37:09 10° NNW visible
09 Jul ? 20:53:00 10° SW 21:00:43 36° WNW 21:08:47 10° N visible
09 Jul ? 22:56:23 10° NW 22:57:39 10° NW 22:58:55 10° NNW visible
